Flag for Germany Weather past 2 weeks in Bietigheim-Bissingen, Baden-Württemberg, Germany

Now
54 °F

Passing clouds.


Feels Like: 54 °F
Forecast: 45 / 67 °F
Wind: 1 mph from South

Location: Stuttgart-Echterdingen

Current Time: Sep 4, 2015 at 5:55:17 AM

Latest Report: Sep 4, 2015 at 5:00 AM


Visibility: 37 mi

Pressure: 30.02 "Hg

Humidity: 78%

Dew point: 47 °F

Location of Bietigheim-BissingenLocation

Historic Weather in Bietigheim-Bissingen — Graph

°F

Bietigheim-Bissingen temperature yesterday

Maximum temperature yesterday: 67 °F (at 4:00 PM)
Minimum temperature yesterday: 57 °F (at 10:00 PM)
Average temperature yesterday: 61 °F

Past Weeks' High & Low Weather Summary

 TemperatureHumidityPressure
High92 °F (Aug 30, 4:00 PM)97% (Aug 20, 8:00 AM)30.28 "Hg (Aug 20, 8:00 AM)
Low48 °F (Aug 26, 7:00 AM)25% (Aug 31, 6:00 PM)29.67 "Hg (Aug 24, 2:00 PM)
Average67 °F66%30.00 "Hg
* Reported Aug 20 5:00 AM — Sep 4 5:00 AM, Bietigheim-Bissingen, Weather by CustomWeather, © 2015

Note: Actual official high and low records may vary slightly from our data, if they occured in-between our weather recording intervals... More about our weather records

Advertising

Bietigheim-Bissingen weather history for previous 24 hours

 ConditionsComfort  
Time TempWeatherWind HumidityBarometerVisibility
5:00 AM
Fri, Sep 4
54 °FPassing clouds.1 mph78%30.02 "Hg37 mi
4:00 AM56 °FOvercast.1 mph72%30.01 "Hg37 mi
3:00 AM56 °FOvercast.1 mph74%30.01 "Hg37 mi
2:00 AM57 °FPassing clouds.1 mph71%30.01 "Hg37 mi
1:00 AM57 °FOvercast.1 mph67%30.01 "Hg37 mi
11:00 PM
Thu, Sep 3
58 °FPassing clouds.2 mph66%29.99 "Hg37 mi
10:00 PM57 °FPassing clouds.3 mph68%29.99 "Hg37 mi
9:00 PM60 °FPassing clouds.3 mph61%29.97 "Hg37 mi
8:00 PM63 °FScattered clouds.5 mph54%29.95 "Hg37 mi
7:00 PM66 °FPartly sunny.3 mph47%29.93 "Hg37 mi
6:00 PM66 °FOvercast.1 mph47%29.93 "Hg34 mi
5:00 PM65 °FOvercast.5 mph49%29.93 "Hg34 mi
4:00 PM67 °FOvercast.1 mph47%29.92 "Hg34 mi
3:00 PM66 °FScattered clouds.2 mph54%29.93 "Hg28 mi
2:00 PM64 °FSprinkles. Overcast.3 mph61%29.94 "Hg22 mi
1:00 PM65 °FOvercast.2 mph57%29.95 "Hg22 mi
12:00 PM64 °FOvercast.1 mph69%29.96 "Hg22 mi
10:00 AM58 °FOvercast.1 mph83%29.98 "Hg19 mi
9:00 AM57 °FOvercast.2 mph86%29.98 "Hg16 mi
8:00 AM58 °FOvercast.2 mph84%29.97 "Hg16 mi
7:00 AM58 °FOvercast.2 mph85%29.96 "Hg16 mi
5:00 AM58 °FOvercast.1 mph92%29.97 "Hg12 mi
Weather by CustomWeather, © 2015

See weather overviewHow to use our weather pages